AMC-9 (GE-12)

导读

AMC-9卫星,也曾命名为GE-12,由SES运营,是一颗商用通信卫星。它于2003年6月6日发射升空,采用Spacebus-3000B3平台建造,发射质量约4100千克,设计寿命15年。卫星配备24路C频段和24路Ku频段转发器,主要为美国、墨西哥及加勒比海地区提供电视传输与宽带通信服务。2017年6月卫星出现故障后完成离轨操作,结束任务。

Basic Information
目录编号:
27820
目录名称:
AMC-9 (GE-12)
国际标识:
2003-024A
轨道中心:
EARTH
卫星名称:
AMC-9 (GE-12)
卫星全名:
--
卫星状态:
在轨 (已飞行8412 天)
发射日期:
2003-06-06 UTC
国别 :
(SES)
星等 :
--
Orbit Information
数据来源 国际轨道数据 AOE轨道数据
星历时间 2026-06-17T13:02:49+0800
11小时前
查看轨道信息
2026-06-15T14:00:00+0800
2天前
查看轨道信息
半长轴 42515.71km 42516.053km
偏心率 0.0018193 0.0018202
轨道倾角 7.920° 7.915°
近地点辐角 353.755° 353.394°
升交点赤经 65.745° 65.768°
平近点角 119.171° 140.618°
近地点 36060.224km 36060.528km
远地点 36214.922km 36215.304km
周期 1454.065分钟 1454.083分钟
每日圈数 0.990327 0.990315
Detailed Information
使用方式:
暂无
2D Orbit Map
3D Orbit Map
Orbit Altitude Analysis Chart
Orbit Inclination Analysis Chart
Orbit Comprehensive Analysis Chart
View Comprehensive Chart